This demonstration page uses our WeatherBlox Daily Observations layout. Learn more.

Left ArrowRight Arrow

39.01783, -85.05884

Hourly Observations for November 28, 2018

Temp ( °F °C ) Dew Point ( °F °C ) Humidity (%) Winds ( mph kmh ) Pressure ( in mb ) Visibility ( mi km ) Precip ( " mm )
12:52 am 00:52 Cloudy 21 -6.1 17 -8.3 85 85 WSW 8 13 30.04 1017 9 14 0.00 0.03
1:52 am 01:52 Cloudy 21 -6.1 16 -8.9 81 81 W 10 17 30.05 1018 10 16 0.00 0.03
2:23 am 02:23 Cloudy 22 -5.6 16 -8.9 78 78 W 10 17 30.09 1019 9 14 0.00 0.03
2:52 am 02:52 Cloudy 22 -5.6 16 -8.9 78 78 W 10 17 30.06 1018 10 16 0.00 0.03
3:52 am 03:52 Cloudy with Light Snow 22 -5.6 16 -8.9 78 78 W 12 19 30.07 1018 7 11 0.00 0.03
4:52 am 04:52 Cloudy 22 -5.6 14 -10 71 71 WNW 13 20 30.08 1019 10 16 0.00 0.03
5:52 am 05:52 Cloudy 21 -6.1 15 -9.4 78 78 W 10 17 30.09 1019 10 16 0.00 0.00
6:52 am 06:52 Cloudy 21 -6.1 15 -9.4 78 78 W 9 15 30.11 1020 10 16 0.00 0.00
7:13 am 07:13 Partly Cloudy 20 -6.7 14 -10 78 78 W 7 11 30.18 1022 10 16 0.00 0.00
7:52 am 07:52 Mostly Sunny 19 -7.2 15 -9.4 84 84 W 7 11 30.12 1020 10 16 0.00 0.00
8:52 am 08:52 Mostly Sunny 22 -5.6 15 -9.4 75 75 W 5 7 30.14 1021 10 16 0.00 0.00
9:52 am 09:52 Mostly Sunny 24 -4.4 16 -8.9 71 71 W 12 19 30.16 1021 10 16 0.00 0.00
10:52 am 10:52 Partly Cloudy 25 -3.9 18 -7.8 75 75 WSW 9 15 30.16 1021 10 16 0.00 0.00
10:57 am 10:57 Mostly Cloudy 25 -3.9 18 -7.8 75 75 SW 10 17 30.18 1022 10 16 0.00 0.00
11:52 am 11:52 Cloudy 26 -3.3 18 -7.8 71 71 W 6 9 30.13 1020 10 16 0.00 0.00
12:52 pm 12:52 Cloudy 27 -2.8 18 -7.8 69 69 WSW 9 15 30.12 1020 10 16 0.00 0.00
1:52 pm 13:52 Cloudy 28 -2.2 18 -7.8 66 66 W 8 13 30.11 1020 10 16 0.00 0.00
2:08 pm 14:08 Mostly Cloudy 28 -2.2 18 -7.8 66 66 W 5 7 30.15 1021 10 16 0.00 0.00
2:52 pm 14:52 Mostly Cloudy 30 -1.1 18 -7.8 61 61 W 8 13 30.11 1020 10 16 0.00 0.00
3:52 pm 15:52 Cloudy 30 -1.1 19 -7.2 64 64 WNW 7 11 30.11 1020 10 16 0.00 0.00
4:52 pm 16:52 Mostly Cloudy 30 -1.1 19 -7.2 64 64 SSW 5 7 30.11 1020 10 16 0.00 0.00
5:52 pm 17:52 Cloudy 30 -1.1 19 -7.2 64 64 Calm 30.11 1020 10 16 0.00 0.00
6:52 pm 18:52 Cloudy 28 -2.2 19 -7.2 69 69 Calm 30.11 1020 10 16 0.00 0.00
7:52 pm 19:52 Cloudy 26 -3.3 21 -6.1 81 81 Calm 30.12 1020 10 16 0.00 0.00
8:52 pm 20:52 Cloudy 26 -3.3 22 -5.6 84 84 SSW 3 6 30.13 1020 10 16 0.00 0.00
9:52 pm 21:52 Cloudy 27 -2.8 22 -5.6 81 81 SSE 3 6 30.11 1020 10 16 0.00 0.00
10:52 pm 22:52 Cloudy 28 -2.2 21 -6.1 75 75 S 7 11 30.09 1019 10 16 0.00 0.00
11:52 pm 23:52 Cloudy 28 -2.2 21 -6.1 75 75 SSW 7 11 30.10 1019 10 16 0.00 0.00

Powered by AerisWeather